Location: Oberwangen
(47.4286°N, 8.9679°E)
Time: 23:29:42
(UTC+00:00)

ALOS 2 - Pass Details

Date: 20 June 2021
Orbit: 630 x 632 km, 97.9° (Epoch: 23 July)

Event Time Altitude Azimuth Distance (km) Brightness Sun altitude
Exits shadow 21:57:56 19° 113° (ESE) 1,493 4.1 -16.4°
Maximum altitude 22:00:10 31° 67° (ENE) 1,127 3.9 -16.5°
Drops below altitude 10° 22:04:02 10° 6° (N) 2,025 6.2 -16.8°
Sets 22:06:25 0° 356° (N) 2,938 7.6 -16.9°
